Weather History for Topeka, KS

Change the Weather History Date:

Friday, May 4, 2012

  Actual Average Record
Temperature  
Mean Temperature 80 °F 61 °F  
Max Temperature 89 °F 72 °F 92 °F (1943)
Min Temperature 70 °F 50 °F 28 °F (1907)
Degree Days  
Heating Degree Days 0 5  
Month to date heating degree days 0 23  
Since 1 July heating degree days 3770 4940  
Cooling Degree Days 15 2  
Month to date cooling degree days 43 6  
Year to date cooling degree days 138 34  
Growing Degree Days 30 (Base 50)    
Moisture  
Dew Point 69 °F    
Average Humidity 75    
Maximum Humidity 93    
Minimum Humidity 56    
Precipitation  
Precipitation 0.20 in 0.16 in 3.84 in (1892)
Month to date precipitation 0.60 0.61  
Year to date precipitation 9.27 8.81  
Snow  
Snow 0.00 in 0.00 in T in (1991)
Month to date snowfall 0.0 0.0  
Year to date snowfall 3.0 11.3  
Since 1 July snowfall 3.1 17.8  
Snow Depth 0.00 in    
Sea Level Pressure  
Sea Level Pressure 29.78 in    
Wind  
Wind Speed 8 mph (South)    
Max Wind Speed 21 mph    
Max Gust Speed 30 mph    
Visibility 10 miles    
Events Rain , Thunderstorm    
T = Trace of Precipitation, MM = Missing Value Source: NWS Daily Summary

Daily Weather History Graph

Daily Weather History Graph

Search for Another Location

Airport:

Trip Planner

Search our weather history database for the weather conditions in past years. The results will help you decide how hot, cold, wet, or windy it might be!

Date:

Astronomy

May. 04, 2012 Rise Set
Actual Time 6:20 AM CDT 8:18 PM CDT
Civil Twilight 5:51 AM CDT 8:48 PM CDT
Nautical Twilight 5:15 AM CDT 9:23 PM CDT
Astronomical Twilight 4:37 AM CDT 10:02 PM CDT
Moon 6:58 PM CDT (5/4) 5:01 AM CDT (5/4)
Length of Visible Light 14h 57m
Length of Day
13h 58m
Waxing Gibbous, 97% of the Moon is Illuminated
May 4
Waxing Gibbous
May 5
Full
May 12
Last Quarter
May 20
New
May 28
First Quarter

Hourly Weather History & Observations

Time (CDT) Temp. Heat Index Dew Point Humidity Pressure Visibility Wind Dir Wind Speed Gust Speed Precip Events Conditions
12:53 AM 78.1 °F - 72.0 °F 81% 29.79 in 10.0 mi South 10.4 mph - N/A   Clear
1:53 AM 75.9 °F - 71.1 °F 85% 29.77 in 10.0 mi SSW 9.2 mph - N/A   Clear
2:53 AM 75.9 °F - 71.1 °F 85% 29.78 in 10.0 mi South 5.8 mph - N/A   Clear
3:53 AM 75.0 °F - 70.0 °F 84% 29.77 in 10.0 mi South 6.9 mph - N/A   Clear
4:53 AM 73.9 °F - 70.0 °F 87% 29.81 in 10.0 mi SSW 4.6 mph - N/A   Clear
5:27 AM 75.2 °F - 69.8 °F 83% 29.86 in 8.0 mi SW 16.1 mph 20.7 mph 0.00 in Rain , Thunderstorm Light Thunderstorms and Rain
5:53 AM 72.0 °F - 66.9 °F 84% 29.83 in 10.0 mi South 5.8 mph - 0.16 in Rain , Thunderstorm Light Thunderstorms and Rain
6:16 AM 75.2 °F - 60.8 °F 61% 29.81 in 9.0 mi West 6.9 mph 20.7 mph 0.02 in Rain Light Rain
6:39 AM 71.6 °F - 62.6 °F 73% 29.79 in 10.0 mi SSE 16.1 mph - 0.04 in Rain Light Rain
6:53 AM 73.0 °F - 61.0 °F 66% 29.73 in 10.0 mi South 13.8 mph - 0.04 in   Mostly Cloudy
7:27 AM 73.4 °F - 59.0 °F 61% 29.76 in 10.0 mi Variable 5.8 mph - N/A   Clear
7:53 AM 73.9 °F - 59.0 °F 59% 29.80 in 10.0 mi SW 6.9 mph - N/A   Clear
8:53 AM 77.0 °F - 61.0 °F 58% 29.81 in 10.0 mi Calm Calm - N/A   Clear
9:53 AM 78.1 °F - 68.0 °F 71% 29.81 in 10.0 mi SE 5.8 mph - N/A   Clear
10:53 AM 81.0 °F 84.1 °F 69.1 °F 67% 29.82 in 10.0 mi SSE 11.5 mph - N/A   Clear
11:53 AM 82.0 °F 86.3 °F 71.1 °F 69% 29.81 in 10.0 mi South 6.9 mph - N/A   Clear
12:53 PM 84.0 °F 89.0 °F 71.1 °F 65% 29.79 in 10.0 mi SSW 10.4 mph - N/A   Partly Cloudy
1:53 PM 86.0 °F 91.5 °F 71.1 °F 61% 29.78 in 10.0 mi South 12.7 mph - N/A   Partly Cloudy
2:53 PM 84.9 °F 90.1 °F 71.1 °F 63% 29.77 in 10.0 mi SSE 9.2 mph - N/A   Clear
3:53 PM 88.0 °F 94.7 °F 72.0 °F 59% 29.75 in 10.0 mi South 10.4 mph - N/A   Clear
4:53 PM 89.1 °F 96.0 °F 72.0 °F 57% 29.73 in 10.0 mi South 12.7 mph 18.4 mph N/A   Clear
5:53 PM 88.0 °F 94.7 °F 72.0 °F 59% 29.73 in 10.0 mi South 11.5 mph - N/A   Clear
6:53 PM 84.0 °F 89.6 °F 72.0 °F 67% 29.73 in 10.0 mi South 13.8 mph - N/A   Clear
7:53 PM 82.0 °F 86.3 °F 71.1 °F 69% 29.74 in 10.0 mi South 9.2 mph - N/A   Clear
8:53 PM 79.0 °F - 71.1 °F 77% 29.75 in 10.0 mi SSE 3.5 mph - N/A   Clear
9:53 PM 75.9 °F - 72.0 °F 87% 29.78 in 10.0 mi SE 4.6 mph - N/A   Clear
10:53 PM 73.9 °F - 71.1 °F 91% 29.78 in 10.0 mi East 4.6 mph - N/A   Clear
11:53 PM 73.0 °F - 70.0 °F 90% 29.79 in 10.0 mi ESE 5.8 mph - N/A   Clear